Weather History for PANC - January, 2014

Change the Weather History Date:

Wednesday, January 8, 2014

  Actual Average Record
Temperature  
Mean Temperature 25 °F 17 °F  
Max Temperature 28 °F 23 °F 43 °F (1985)
Min Temperature 22 °F 11 °F -21 °F (1975)
Degree Days  
Heating Degree Days 40    
Month to date heating degree days 297  
Since 1 July heating degree days 4656  
Cooling Degree Days 0    
Month to date cooling degree days 0  
Year to date cooling degree days 0  
Moisture  
Dew Point 23 °F    
Average Humidity 85    
Maximum Humidity 92    
Minimum Humidity 78    
Precipitation  
Precipitation T in 0.02 in 0.44 in (2001)
Month to date precipitation 0.16 0.21  
Year to date precipitation 0.16 0.21  
Snow  
Snow T in 0.40 in 5.90 in (2012)
Month to date snowfall 1.6 3.2  
Since 1 July snowfall 35.9 41.3  
Snow Depth 14.00 in    
Sea Level Pressure  
Sea Level Pressure 29.28 in    
Wind  
Wind Speed 2 mph (NNE)    
Max Wind Speed 8 mph    
Max Gust Speed -    
Visibility 10 miles    
Events Snow    
T = Trace of Precipitation, MM = Missing Value Source: NWS Daily Summary

Daily Weather History Graph

Daily Weather History Graph

Search for Another Location

Airport or City:

Trip Planner

Search our weather history database for the weather conditions in past years. The results will help you decide how hot, cold, wet, or windy it might be!

Date:

Astronomy

Jan. 08, 2014 Rise Set
Actual Time 10:07 AM AKST 4:07 PM AKST
Civil Twilight 9:08 AM AKST 5:05 PM AKST
Nautical Twilight 8:10 AM AKST 6:03 PM AKST
Astronomical Twilight 7:18 AM AKST 6:56 PM AKST
Moon 12:04 PM AKST (1/8) 2:18 AM AKST (1/8)
Length of Visible Light 7h 57m
Length of Day
6h 00m
First Quarter, 57% of the Moon is Illuminated
Jan 8
First Quarter
Jan 15
Full
Jan 23
Last Quarter
Jan 30
New
Feb 6
First Quarter

Hourly Weather History & Observations

Time (AKST) Temp. Windchill Dew Point Humidity Pressure Visibility Wind Dir Wind Speed Gust Speed Precip Events Conditions
12:53 AM 24.1 °F - 21.0 °F 88% 29.41 in 10.0 mi Calm Calm - N/A   Overcast
1:53 AM 25.0 °F - 23.0 °F 92% 29.40 in 10.0 mi Calm Calm - N/A   Mostly Cloudy
3:53 AM 27.0 °F 23.0 °F 23.0 °F 85% 29.37 in 10.0 mi North 3.5 mph - N/A   Mostly Cloudy
4:53 AM 27.0 °F - 23.0 °F 85% 29.35 in 10.0 mi Calm Calm - N/A   Overcast
5:53 AM 27.0 °F - 21.9 °F 81% 29.34 in 10.0 mi Calm Calm - N/A   Overcast
6:53 AM 25.0 °F - 21.9 °F 88% 29.33 in 10.0 mi Calm Calm - N/A   Overcast
7:53 AM 27.0 °F - 23.0 °F 85% 29.31 in 10.0 mi Calm Calm - N/A   Overcast
8:53 AM 25.0 °F - 23.0 °F 92% 29.31 in 10.0 mi Calm Calm - N/A   Overcast
9:53 AM 27.0 °F - 23.0 °F 85% 29.31 in 10.0 mi Calm Calm - N/A   Overcast
10:53 AM 28.0 °F 21.7 °F 24.1 °F 85% 29.31 in 10.0 mi NNW 5.8 mph - N/A   Overcast
11:53 AM 28.0 °F 22.8 °F 23.0 °F 81% 29.30 in 10.0 mi East 4.6 mph - N/A   Overcast
12:53 PM 28.9 °F 23.9 °F 24.1 °F 82% 29.29 in 10.0 mi East 4.6 mph - 0.00 in   Overcast
1:53 PM 28.9 °F 25.2 °F 23.0 °F 78% 29.26 in 10.0 mi NE 3.5 mph - N/A   Overcast
2:53 PM 28.9 °F 21.1 °F 24.1 °F 82% 29.24 in 10.0 mi NE 8.1 mph - N/A   Mostly Cloudy
3:53 PM 28.9 °F 25.2 °F 24.1 °F 82% 29.24 in 10.0 mi North 3.5 mph - N/A   Mostly Cloudy
4:53 PM 28.9 °F 21.9 °F 25.0 °F 85% 29.23 in 10.0 mi NNW 6.9 mph - N/A   Mostly Cloudy
5:53 PM 28.0 °F - 24.1 °F 85% 29.21 in 10.0 mi Calm Calm - N/A   Mostly Cloudy
6:53 PM 28.0 °F - 23.0 °F 81% 29.21 in 10.0 mi Calm Calm - N/A   Overcast
7:53 PM 27.0 °F - 24.1 °F 89% 29.21 in 10.0 mi Calm Calm - 0.00 in   Overcast
8:53 PM 27.0 °F - 24.1 °F 89% 29.22 in 10.0 mi Calm Calm - N/A   Overcast
9:53 PM 27.0 °F - 24.1 °F 89% 29.22 in 5.0 mi Calm Calm - 0.00 in Snow Light Snow
10:06 PM 26.6 °F - 24.8 °F 93% 29.21 in 5.0 mi Calm Calm - 0.00 in Snow Light Snow
10:53 PM 27.0 °F - 24.1 °F 89% 29.22 in 5.0 mi Calm Calm - 0.00 in Snow Light Snow
11:53 PM 26.1 °F - 24.1 °F 92% 29.23 in 10.0 mi Calm Calm - 0.00 in   Overcast